Mount Pleasant, TX

8:16 AM CDT on June 23, 2017 (GMT -0500)
Mount Pleasant

Weather History for KOSA - August, 2013

Change the Weather History Date:

Saturday, August 24, 2013

  Actual Average (KGGG) Record (KGGG)
Temperature  
Mean Temperature 85 °F -  
Max Temperature 99 °F 90 °F 104 °F (1938)
Min Temperature 72 °F 70 °F 61 °F (1931)
Cooling Degree Days 20    
Growing Degree Days 35 (Base 50)    
Moisture  
Dew Point 63 °F    
Average Humidity 51    
Maximum Humidity 82    
Minimum Humidity 23    
Precipitation  
Precipitation 0.00 in - - ()
Sea Level Pressure  
Sea Level Pressure 30.05 in    
Wind  
Wind Speed 3 mph (ENE)    
Max Wind Speed 17 mph    
Max Gust Speed 23 mph    
Visibility 10 miles    
Events      
Averages and records for this station are not official NWS values.
T = Trace of Precipitation, MM = Missing Value Source: NWS Daily Summary

Daily Weather History Graph

Daily Weather History Graph

Search for Another Location

Airport or City:

Trip Planner

Search our weather history database for the weather conditions in past years. The results will help you decide how hot, cold, wet, or windy it might be!

Date:

Astronomy

Aug. 24, 2013 Rise Set
Actual Time 6:49 AM CDT 7:54 PM CDT
Civil Twilight 6:23 AM CDT 8:20 PM CDT
Nautical Twilight 5:53 AM CDT 8:50 PM CDT
Astronomical Twilight 5:21 AM CDT 9:21 PM CDT
Moon 10:06 PM CDT (8/24) 10:33 AM CDT (8/24)
Length of Visible Light 13h 56m
Length of Day
13h 05m
Waning Gibbous, 84% of the Moon is Illuminated
Aug 24
Waning Gibbous
Aug 28
Last Quarter
Sep 5
New
Sep 12
First Quarter
Sep 19
Full

Hourly Weather History & Observations

Time (CDT) Temp. Heat Index Dew Point Humidity Pressure Visibility Wind Dir Wind Speed Gust Speed Precip Events Conditions
12:15 AM 80.8 °F 82.4 °F 64.0 °F 57% 30.02 in 10.0 mi Calm Calm - N/A   Clear
12:35 AM 80.6 °F 82.3 °F 64.4 °F 58% 30.02 in 10.0 mi Calm Calm - N/A   Clear
12:55 AM 80.2 °F 82.0 °F 64.6 °F 59% 30.02 in 10.0 mi Calm Calm - N/A   Clear
1:15 AM 79.5 °F - 65.1 °F 61% 30.03 in 10.0 mi Calm Calm - N/A   Clear
1:35 AM 78.3 °F - 65.3 °F 64% 30.03 in 10.0 mi Calm Calm - N/A   Clear
1:55 AM 78.4 °F - 65.3 °F 64% 30.02 in 10.0 mi Calm Calm - N/A   Clear
2:15 AM 78.4 °F - 65.5 °F 64% 30.02 in 10.0 mi Calm Calm - N/A   Clear
2:35 AM 78.4 °F - 65.5 °F 64% 30.02 in 10.0 mi Calm Calm - N/A   Clear
2:55 AM 77.9 °F - 65.5 °F 65% 30.02 in 10.0 mi Calm Calm - N/A   Clear
3:15 AM 73.4 °F - 66.0 °F 78% 30.02 in 10.0 mi Calm Calm - N/A   Clear
3:35 AM 76.1 °F - 66.2 °F 71% 30.02 in 10.0 mi Calm Calm - N/A   Clear
3:55 AM 76.8 °F - 66.2 °F 70% 30.03 in 10.0 mi Calm Calm - N/A   Clear
4:15 AM 75.9 °F - 66.4 °F 72% 30.03 in 10.0 mi Calm Calm - N/A   Clear
4:35 AM 74.5 °F - 66.6 °F 76% 30.03 in 10.0 mi Calm Calm - N/A   Clear
4:55 AM 72.5 °F - 66.7 °F 82% 30.03 in 10.0 mi ENE 4.6 mph - N/A   Clear
5:15 AM 74.7 °F - 66.6 °F 76% 30.03 in 10.0 mi Calm Calm - N/A   Clear
5:35 AM 74.5 °F - 66.7 °F 77% 30.04 in 10.0 mi Calm Calm - N/A   Clear
5:55 AM 74.3 °F - 67.1 °F 78% 30.04 in 10.0 mi Calm Calm - N/A   Clear
6:15 AM 74.3 °F - 67.1 °F 78% 30.05 in 10.0 mi Calm Calm - N/A   Clear
6:35 AM 73.8 °F - 67.1 °F 80% 30.06 in 10.0 mi NE 4.6 mph - N/A   Clear
6:55 AM 73.6 °F - 67.1 °F 80% 30.06 in 10.0 mi NE 4.6 mph - N/A   Clear
7:15 AM 73.8 °F - 67.3 °F 80% 30.07 in 10.0 mi NE 4.6 mph - N/A   Clear
7:35 AM 74.7 °F - 67.6 °F 79% 30.08 in 10.0 mi ENE 4.6 mph - N/A   Clear
7:55 AM 76.3 °F - 68.0 °F 75% 30.09 in 10.0 mi Calm Calm - N/A   Clear
8:15 AM 78.1 °F - 67.8 °F 71% 30.09 in 10.0 mi Calm Calm - N/A   Clear
8:35 AM 79.7 °F - 67.8 °F 67% 30.10 in 10.0 mi ESE 4.6 mph - N/A   Clear
8:55 AM 81.5 °F 84.4 °F 68.2 °F 64% 30.10 in 10.0 mi Calm Calm - N/A   Clear
9:15 AM 83.3 °F 86.4 °F 68.2 °F 60% 30.10 in 10.0 mi Calm Calm - N/A   Clear
9:35 AM 85.3 °F 88.5 °F 68.2 °F 56% 30.10 in 10.0 mi Calm Calm - N/A   Clear
9:55 AM 86.9 °F 89.9 °F 67.5 °F 52% 30.10 in 10.0 mi ESE 3.5 mph - N/A   Clear
10:15 AM 88.5 °F 91.2 °F 66.7 °F 48% 30.11 in 10.0 mi Calm Calm - N/A   Clear
10:35 AM 89.8 °F 91.8 °F 65.3 °F 44% 30.10 in 10.0 mi Calm Calm - N/A   Clear
10:55 AM 90.5 °F 92.5 °F 64.9 °F 43% 30.10 in 10.0 mi NE 6.9 mph - N/A   Clear
11:15 AM 91.6 °F 93.1 °F 64.4 °F 40% 30.10 in 10.0 mi East 9.2 mph - N/A   Clear
11:35 AM 92.3 °F 93.8 °F 64.2 °F 39% 30.10 in 10.0 mi East 6.9 mph - N/A   Clear
11:55 AM 93.2 °F 94.5 °F 63.3 °F 37% 30.09 in 10.0 mi NE 6.9 mph - N/A   Scattered Clouds
12:15 PM 93.9 °F 94.8 °F 62.1 °F 35% 30.09 in 10.0 mi ENE 4.6 mph - N/A   Scattered Clouds
12:35 PM 94.1 °F 93.5 °F 58.8 °F 31% 30.08 in 10.0 mi East 8.1 mph - N/A   Clear
12:55 PM 94.8 °F 94.2 °F 58.8 °F 30% 30.07 in 10.0 mi East 11.5 mph 17.3 mph N/A   Clear
1:15 PM 95.2 °F 94.3 °F 57.9 °F 29% 30.07 in 10.0 mi East 4.6 mph - N/A   Clear
1:35 PM 94.8 °F 93.4 °F 57.2 °F 28% 30.06 in 10.0 mi NNE 3.5 mph - N/A   Scattered Clouds
1:55 PM 96.1 °F 95.2 °F 57.7 °F 28% 30.05 in 10.0 mi NE 9.2 mph - N/A   Scattered Clouds
2:15 PM 93.9 °F 92.9 °F 58.3 °F 30% 30.05 in 10.0 mi ENE 10.4 mph - N/A   Scattered Clouds
2:35 PM 96.3 °F 95.1 °F 57.4 °F 27% 30.05 in 10.0 mi East 6.9 mph - N/A   Clear
2:55 PM 95.4 °F 94.2 °F 57.6 °F 28% 30.04 in 10.0 mi ENE 11.5 mph 17.3 mph N/A   Scattered Clouds
3:15 PM 96.4 °F 95.3 °F 57.0 °F 27% 30.03 in 10.0 mi East 11.5 mph 16.1 mph N/A   Scattered Clouds
3:35 PM 98.6 °F 97.2 °F 56.3 °F 24% 30.03 in 10.0 mi ENE 12.7 mph 18.4 mph N/A   Scattered Clouds
3:55 PM 98.4 °F 96.9 °F 55.6 °F 24% 30.02 in 10.0 mi East 10.4 mph 16.1 mph N/A   Clear
4:15 PM 98.8 °F 97.0 °F 55.2 °F 23% 30.01 in 10.0 mi ENE 11.5 mph 16.1 mph N/A   Scattered Clouds
4:35 PM 98.2 °F 96.3 °F 54.3 °F 23% 30.01 in 10.0 mi ENE 11.5 mph - N/A   Scattered Clouds
4:55 PM 98.1 °F 96.1 °F 53.8 °F 23% 30.01 in 10.0 mi ENE 16.1 mph - N/A   Clear
5:15 PM 96.8 °F 95.1 °F 55.9 °F 25% 30.00 in 10.0 mi East 17.3 mph 21.9 mph N/A   Clear
5:35 PM 95.5 °F 94.8 °F 58.3 °F 29% 30.01 in 10.0 mi East 15.0 mph 23.0 mph N/A   Scattered Clouds
5:55 PM 94.6 °F 93.9 °F 58.8 °F 30% 30.01 in 10.0 mi East 16.1 mph 19.6 mph N/A   Scattered Clouds
6:15 PM 94.1 °F 93.1 °F 58.5 °F 30% 30.01 in 10.0 mi East 15.0 mph 19.6 mph N/A   Scattered Clouds
6:35 PM 93.9 °F 93.6 °F 60.3 °F 32% 30.01 in 10.0 mi ENE 10.4 mph - N/A   Clear
6:55 PM 93.4 °F 92.5 °F 58.5 °F 31% 30.01 in 10.0 mi East 10.4 mph - N/A   Clear
7:15 PM 92.5 °F 91.6 °F 59.0 °F 32% 30.01 in 10.0 mi East 6.9 mph - N/A   Clear
7:35 PM 90.9 °F 90.9 °F 61.0 °F 37% 30.01 in 10.0 mi ENE 8.1 mph - N/A   Clear
7:55 PM 89.6 °F 89.8 °F 61.7 °F 39% 30.02 in 10.0 mi East 5.8 mph - N/A   Clear
8:15 PM 87.3 °F 88.0 °F 62.8 °F 44% 30.03 in 10.0 mi ENE 5.8 mph - N/A   Clear
8:35 PM 86.0 °F 87.1 °F 63.3 °F 47% 30.03 in 10.0 mi East 4.6 mph - N/A   Clear
8:55 PM 85.1 °F 86.1 °F 63.5 °F 48% 30.04 in 10.0 mi East 5.8 mph - N/A   Clear
9:15 PM 84.7 °F 85.9 °F 63.7 °F 49% 30.05 in 10.0 mi East 5.8 mph - N/A   Clear
9:35 PM 83.8 °F 85.1 °F 63.9 °F 51% 30.05 in 10.0 mi East 5.8 mph - N/A   Clear
9:55 PM 82.9 °F 84.4 °F 64.4 °F 53% 30.06 in 10.0 mi ENE 5.8 mph - N/A   Clear
10:15 PM 82.4 °F 83.9 °F 64.4 °F 54% 30.07 in 10.0 mi East 5.8 mph - N/A   Clear
10:35 PM 81.7 °F 83.3 °F 64.4 °F 56% 30.07 in 10.0 mi Calm Calm - N/A   Clear
10:55 PM 81.5 °F 83.1 °F 64.6 °F 56% 30.08 in 10.0 mi Calm Calm - N/A   Clear
11:15 PM 80.8 °F 82.6 °F 65.3 °F 59% 30.08 in 10.0 mi Calm Calm - N/A   Clear
11:35 PM 80.6 °F 82.3 °F 64.4 °F 58% 30.08 in 10.0 mi Calm Calm - N/A   Clear
11:55 PM 79.5 °F - 64.6 °F 60% 30.08 in 10.0 mi Calm Calm - N/A   Clear